{"data":{"norad_id":67364,"epoch":"2026-05-24T22:53:16.706112Z","epoch_age_seconds":89481,"freshness":"FRESH","line1":"1 67364U 26004B   26144.95366558  .00001449  00000+0  16537-3 0  9994","line2":"2 67364  97.8060 143.8967 0008039 196.3107 163.7852 14.87607705 19831","mean_motion":14.87607705,"eccentricity":0.0008039,"inclination_deg":97.806,"raan_deg":143.8967,"arg_perigee_deg":196.3107,"mean_anomaly_deg":163.7852,"bstar":0.00016537,"rev_number":1983,"period_min":96.799713739047,"perigee_km":599.79862986591,"apogee_km":611.02678108238,"semimajor_km":6983.5497054741,"source":"CELESTRAK","updated_at":"2026-05-25T13:38:13.578145Z"}}